Location: Igri�s
(42.2144°N, 0.4320°W)
Time: 13:05:23
(UTC+00:00)

Cosmos 1666 Rocket - Pass Details

Date: 13 August 2020
Orbit: 605 x 632 km, 82.5° (Epoch: 24 September)

Event Time Altitude Azimuth Distance (km) Brightness Sun altitude
Rises 20:05:50 0° 181° (S) 2,844 6.7 -11.0°
Reaches altitude 10° 20:08:02 10° 179° (S) 1,946 5.8 -11.3°
Maximum altitude 20:12:19 71° 96° (E) 646 3.4 -12.0°
Drops below altitude 10° 20:16:39 10° 13° (NNE) 1,970 6.4 -12.7°
Sets 20:18:53 0° 11° (N) 2,882 7.3 -13.0°
